Colima, Mexico

9:11 PM CDT on May 20, 2018 (GMT -0500)
Colima

Weather History for MMIA - July, 2013

Change the Weather History Date:

Wednesday, July 3, 2013

  Actual Average Record
Temperature  
Mean Temperature 80 °F -  
Max Temperature 90 °F 83 °F 95 °F (2017)
Min Temperature 69 °F 69 °F 62 °F (2000)
Cooling Degree Days 14    
Growing Degree Days 30 (Base 50)    
Moisture  
Dew Point 69 °F    
Average Humidity 76    
Maximum Humidity 94    
Minimum Humidity 54    
Precipitation  
Precipitation 0.39 in - - ()
Sea Level Pressure  
Sea Level Pressure 29.94 in    
Wind  
Wind Speed 3 mph ()    
Max Wind Speed 14 mph    
Max Gust Speed -    
Visibility 6.0 miles    
Events Rain , Thunderstorm    
Averages and records for this station are not official NWS values.
T = Trace of Precipitation, MM = Missing Value Source: Averaged Metar Reports

Daily Weather History Graph

Daily Weather History Graph

Search for Another Location

Airport or City:

Astronomy

Jul. 03, 2013 Rise Set
Actual Time 7:20 AM CDT 8:36 PM CDT
Civil Twilight 6:56 AM CDT 9:00 PM CDT
Nautical Twilight 6:27 AM CDT 9:29 PM CDT
Astronomical Twilight 5:57 AM CDT 9:59 PM CDT
Moon 3:45 AM CDT (7/3) 5:00 PM CDT (7/3)
Length of Visible Light 14h 04m
Length of Day
13h 15m
Waning Crescent, 18% of the Moon is Illuminated
Jul 3
Waning Crescent
Jul 8
New
Jul 15
First Quarter
Jul 22
Full
Jul 29
Last Quarter

Hourly Weather History & Observations

Time (CDT) Temp. Heat Index Dew Point Humidity Pressure Visibility Wind Dir Wind Speed Gust Speed Precip Events Conditions
12:40 AM 76 °F - 71 °F 79% 29.92 in 6 mi Calm Calm - -   Haze
6:00 AM 69.8 °F - 66.2 °F 88% 29.96 in 8.0 mi Calm Calm - N/A   Mostly Cloudy
6:50 AM 72 °F - 70 °F 91% 29.88 in 5 mi NE 2.2 mph - -   Haze
7:40 AM 71.6 °F - 64.4 °F 78% 29.97 in 8.0 mi Calm Calm - N/A   Mostly Cloudy
8:40 AM 71.6 °F - 62.6 °F 73% 29.98 in 8.0 mi Calm Calm - N/A   Scattered Clouds
9:40 AM 77.0 °F - 60.8 °F 57% 30.00 in 8.0 mi Calm Calm - N/A   Scattered Clouds
9:54 AM 80 °F - 72 °F 70% 29.92 in 6 mi NE 2.2 mph - -   Haze
10:40 AM 77.0 °F - 64.4 °F 65% 30.00 in 8.0 mi Calm Calm - N/A   Scattered Clouds
11:43 AM 78.8 °F - 62.6 °F 57% 30.00 in 8.0 mi Calm Calm - N/A   Scattered Clouds
12:40 PM 82.4 °F 83.9 °F 64.4 °F 54% 30.00 in 8.0 mi Calm Calm - N/A   Scattered Clouds
12:53 PM 87 °F - 74 °F 57% 29.91 in 6 mi SE 4.5 mph - -   Haze
1:40 PM 84.2 °F 87.3 °F 68.0 °F 58% 29.98 in 8.0 mi SSW 9.2 mph - N/A   Mostly Cloudy
2:46 PM 80.6 °F 84.6 °F 71.6 °F 74% 29.95 in 8.0 mi WSW 13.8 mph - N/A   Mostly Cloudy
2:58 PM 80.6 °F 84.6 °F 71.6 °F 74% 29.94 in 5.0 mi SW 13.8 mph - N/A Thunderstorm Mostly Cloudy
3:09 PM 80.6 °F 85.4 °F 73.4 °F 79% 29.94 in 5.0 mi WSW 11.5 mph - N/A Rain Light Rain
3:48 PM 87 °F - 74 °F 57% 29.84 in 6 mi South 6.7 mph - -   Haze
3:49 PM 75.2 °F - 71.6 °F 89% 29.93 in 4.0 mi SW 11.5 mph - N/A   Overcast
4:44 PM 75.2 °F - 71.6 °F 89% 29.94 in 5.0 mi SSW 5.8 mph - N/A Thunderstorm Overcast
5:33 PM 71.6 °F - 69.8 °F 94% 29.95 in 4.0 mi Calm Calm - N/A Rain Rain
5:46 PM 69.8 °F - 66.2 °F 88% 29.95 in 2.5 mi NNE 5.8 mph - N/A Rain Rain
6:43 PM 69.8 °F - 66.2 °F 88% 29.96 in 2.5 mi North 9.2 mph - N/A Rain Rain
6:47 PM 79 °F - 73 °F 78% 29.85 in 5 mi NE 2.2 mph - -   Haze
7:43 PM 71.6 °F - 69.8 °F 94% 29.95 in 5.0 mi Calm Calm - N/A   Overcast
8:42 PM 73.4 °F - 71.6 °F 94% 29.96 in 6.0 mi Calm Calm - N/A   Overcast
9:40 PM 74 °F - 70 °F 84% 29.87 in 5 mi NE 2.2 mph - -   Haze